contact:dominique.lefevre@mio.osupytheas.fr, maurice.libes@osupytheas.fr, didier.mallarino@osupytheas.fr
Project:EMSO http://www.emso-fr.org/EMSO-France
Depth: 2436.0 m
Title:EMSO Ligure Ouest : Data MII capteur MICROCAT
DateTime_Computer,Latitude,Longitude,Temperature,Conductivity,Pressure,DateTime_Instrument
DateTime_Computer,Latitude,Longitude,degC,S m-1,dbar,DateTime_Instrument
2021-05-19T00:03:01Z,42.805,6.029,13.2996,4.60007,2470.646,2021-5-19T02:04:12Z
2021-05-19T00:06:04Z,42.805,6.029,13.2993,4.60004,2470.67,2021-5-19T02:07:16Z
2021-05-19T00:09:07Z,42.805,6.029,13.2994,4.60004,2470.637,2021-5-19T02:10:19Z
2021-05-19T00:12:11Z,42.805,6.029,13.2998,4.60014,2470.693,2021-5-19T02:13:22Z
2021-05-19T00:15:14Z,42.805,6.029,13.2995,4.60004,2470.684,2021-5-19T02:16:25Z
2021-05-19T00:18:17Z,42.805,6.029,13.2991,4.60004,2470.67,2021-5-19T02:19:28Z
2021-05-19T00:21:20Z,42.805,6.029,13.2991,4.60004,2470.661,2021-5-19T02:22:31Z
2021-05-19T00:24:23Z,42.805,6.029,13.3000,4.60006,2470.646,2021-5-19T02:25:34Z
2021-05-19T00:27:26Z,42.805,6.029,13.2998,4.60011,2470.637,2021-5-19T02:28:37Z
2021-05-19T00:30:29Z,42.805,6.029,13.2998,4.60009,2470.661,2021-5-19T02:31:41Z
2021-05-19T00:33:32Z,42.805,6.029,13.2993,4.60004,2470.661,2021-5-19T02:34:44Z
2021-05-19T00:36:36Z,42.805,6.029,13.2996,4.60009,2470.637,2021-5-19T02:37:47Z
2021-05-19T00:39:39Z,42.805,6.029,13.2991,4.60006,2470.67,2021-5-19T02:40:50Z
2021-05-19T00:42:42Z,42.805,6.029,13.2992,4.60003,2470.646,2021-5-19T02:43:53Z
2021-05-19T00:45:45Z,42.805,6.029,13.2991,4.60003,2470.67,2021-5-19T02:46:56Z
2021-05-19T00:48:48Z,42.805,6.029,13.2993,4.60003,2470.646,2021-5-19T02:49:59Z
2021-05-19T00:51:51Z,42.805,6.029,13.2993,4.60003,2470.646,2021-5-19T02:53:02Z
2021-05-19T00:54:54Z,42.805,6.029,13.2995,4.60003,2470.67,2021-5-19T02:56:06Z
2021-05-19T00:57:57Z,42.805,6.029,13.2996,4.60007,2470.661,2021-5-19T02:59:09Z
2021-05-19T01:01:01Z,42.805,6.029,13.3004,4.60014,2470.661,2021-5-19T03:02:12Z
2021-05-19T01:04:04Z,42.805,6.029,13.2995,4.60011,2470.646,2021-5-19T03:05:15Z
2021-05-19T01:07:07Z,42.805,6.029,13.2997,4.60008,2470.624,2021-5-19T03:08:18Z
2021-05-19T01:10:10Z,42.805,6.029,13.2993,4.60007,2470.633,2021-5-19T03:11:21Z
2021-05-19T01:13:13Z,42.805,6.029,13.2993,4.60009,2470.624,2021-5-19T03:14:24Z
2021-05-19T01:16:16Z,42.805,6.029,13.2991,4.60003,2470.67,2021-5-19T03:17:27Z
2021-05-19T01:19:19Z,42.805,6.029,13.2996,4.60010,2470.661,2021-5-19T03:20:31Z
2021-05-19T01:22:22Z,42.805,6.029,13.2996,4.60008,2470.646,2021-5-19T03:23:34Z
2021-05-19T01:25:26Z,42.805,6.029,13.2997,4.60006,2470.646,2021-5-19T03:26:37Z
2021-05-19T01:28:29Z,42.805,6.029,13.2996,4.60004,2470.67,2021-5-19T03:29:40Z
2021-05-19T01:31:32Z,42.805,6.029,13.2993,4.60004,2470.637,2021-5-19T03:32:43Z
2021-05-19T01:34:35Z,42.805,6.029,13.2995,4.60007,2470.646,2021-5-19T03:35:46Z
2021-05-19T01:37:38Z,42.805,6.029,13.2998,4.60006,2470.646,2021-5-19T03:38:49Z
2021-05-19T01:40:41Z,42.805,6.029,13.2994,4.60009,2470.67,2021-5-19T03:41:52Z
2021-05-19T01:43:44Z,42.805,6.029,13.2996,4.60011,2470.637,2021-5-19T03:44:56Z
2021-05-19T01:46:47Z,42.805,6.029,13.2993,4.60005,2470.624,2021-5-19T03:47:59Z
2021-05-19T01:49:51Z,42.805,6.029,13.2992,4.60004,2470.624,2021-5-19T03:51:02Z
2021-05-19T01:52:54Z,42.805,6.029,13.2994,4.60003,2470.624,2021-5-19T03:54:05Z
2021-05-19T01:55:57Z,42.805,6.029,13.2995,4.60005,2470.624,2021-5-19T03:57:08Z
2021-05-19T01:59:00Z,42.805,6.029,13.2993,4.60004,2470.6,2021-5-19T04:00:11Z
2021-05-19T02:02:03Z,42.805,6.029,13.2998,4.60004,2470.661,2021-5-19T04:03:14Z
2021-05-19T02:05:06Z,42.805,6.029,13.2995,4.60005,2470.637,2021-5-19T04:06:17Z
2021-05-19T02:08:09Z,42.805,6.029,13.2993,4.60004,2470.624,2021-5-19T04:09:21Z
2021-05-19T02:11:12Z,42.805,6.029,13.2998,4.60024,2470.637,2021-5-19T04:12:24Z
2021-05-19T02:14:15Z,42.805,6.029,13.2992,4.60009,2470.577,2021-5-19T04:15:27Z
2021-05-19T02:17:19Z,42.805,6.029,13.2996,4.60006,2470.614,2021-5-19T04:18:30Z
2021-05-19T02:20:22Z,42.805,6.029,13.2993,4.60009,2470.624,2021-5-19T04:21:33Z
2021-05-19T02:23:25Z,42.805,6.029,13.2993,4.60006,2470.624,2021-5-19T04:24:36Z
2021-05-19T02:26:28Z,42.805,6.029,13.2994,4.60004,2470.637,2021-5-19T04:27:39Z
2021-05-19T02:29:31Z,42.805,6.029,13.2991,4.60005,2470.646,2021-5-19T04:30:42Z
2021-05-19T02:32:34Z,42.805,6.029,13.2993,4.60004,2470.624,2021-5-19T04:33:46Z
2021-05-19T02:35:37Z,42.805,6.029,13.2996,4.60003,2470.637,2021-5-19T04:36:49Z
2021-05-19T02:38:40Z,42.805,6.029,13.2994,4.60003,2470.6,2021-5-19T04:39:52Z
2021-05-19T02:41:44Z,42.805,6.029,13.2996,4.60002,2470.6,2021-5-19T04:42:55Z
2021-05-19T02:44:47Z,42.805,6.029,13.2996,4.60015,2470.637,2021-5-19T04:45:58Z
2021-05-19T02:47:50Z,42.805,6.029,13.2993,4.60004,2470.661,2021-5-19T04:49:01Z
2021-05-19T02:50:53Z,42.805,6.029,13.2998,4.60011,2470.624,2021-5-19T04:52:04Z
2021-05-19T02:53:56Z,42.805,6.029,13.2991,4.60006,2470.624,2021-5-19T04:55:07Z
2021-05-19T02:56:59Z,42.805,6.029,13.2998,4.60005,2470.614,2021-5-19T04:58:11Z
2021-05-19T03:00:02Z,42.805,6.029,13.2993,4.60001,2470.637,2021-5-19T05:01:14Z
2021-05-19T03:03:05Z,42.805,6.029,13.2997,4.60004,2470.637,2021-5-19T05:04:17Z
2021-05-19T03:06:09Z,42.805,6.029,13.2992,4.60009,2470.637,2021-5-19T05:07:20Z
2021-05-19T03:09:12Z,42.805,6.029,13.3000,4.60011,2470.591,2021-5-19T05:10:23Z
2021-05-19T03:12:15Z,42.805,6.029,13.2998,4.60009,2470.614,2021-5-19T05:13:26Z
2021-05-19T03:15:18Z,42.805,6.029,13.2997,4.60009,2470.661,2021-5-19T05:16:29Z
2021-05-19T03:18:21Z,42.805,6.029,13.2990,4.60007,2470.624,2021-5-19T05:19:32Z
2021-05-19T03:21:24Z,42.805,6.029,13.2996,4.60008,2470.6,2021-5-19T05:22:36Z
2021-05-19T03:24:27Z,42.805,6.029,13.2993,4.60003,2470.591,2021-5-19T05:25:39Z
2021-05-19T03:27:30Z,42.805,6.029,13.2991,4.60002,2470.553,2021-5-19T05:28:42Z
2021-05-19T03:30:34Z,42.805,6.029,13.2996,4.60003,2470.6,2021-5-19T05:31:45Z
2021-05-19T03:33:37Z,42.805,6.029,13.2998,4.60016,2470.614,2021-5-19T05:34:48Z
2021-05-19T03:36:40Z,42.805,6.029,13.2991,4.60003,2470.586,2021-5-19T05:37:51Z
2021-05-19T03:39:43Z,42.805,6.029,13.2992,4.60004,2470.624,2021-5-19T05:40:54Z
2021-05-19T03:42:46Z,42.805,6.029,13.2996,4.60020,2470.614,2021-5-19T05:43:57Z
2021-05-19T03:45:49Z,42.805,6.029,13.2998,4.60010,2470.637,2021-5-19T05:47:01Z
2021-05-19T03:48:52Z,42.805,6.029,13.2998,4.60003,2470.614,2021-5-19T05:50:04Z
2021-05-19T03:51:55Z,42.805,6.029,13.2992,4.60002,2470.6,2021-5-19T05:53:07Z
2021-05-19T03:54:59Z,42.805,6.029,13.2996,4.60004,2470.637,2021-5-19T05:56:10Z
2021-05-19T03:58:02Z,42.805,6.029,13.2994,4.60006,2470.591,2021-5-19T05:59:13Z
2021-05-19T04:01:05Z,42.805,6.029,13.2997,4.60006,2470.614,2021-5-19T06:02:16Z
2021-05-19T04:04:08Z,42.805,6.029,13.2991,4.60012,2470.6,2021-5-19T06:05:19Z
2021-05-19T04:07:11Z,42.805,6.029,13.2996,4.60002,2470.614,2021-5-19T06:08:22Z
2021-05-19T04:10:14Z,42.805,6.029,13.2998,4.60006,2470.577,2021-5-19T06:11:26Z
2021-05-19T04:13:17Z,42.805,6.029,13.2991,4.60004,2470.614,2021-5-19T06:14:29Z
2021-05-19T04:16:20Z,42.805,6.029,13.2993,4.60005,2470.614,2021-5-19T06:17:32Z
2021-05-19T04:19:24Z,42.805,6.029,13.2995,4.60009,2470.577,2021-5-19T06:20:35Z
2021-05-19T04:22:27Z,42.805,6.029,13.2990,4.59999,2470.577,2021-5-19T06:23:38Z
2021-05-19T04:25:30Z,42.805,6.029,13.2990,4.59999,2470.577,2021-5-19T06:26:41Z
2021-05-19T04:28:33Z,42.805,6.029,13.2993,4.60000,2470.614,2021-5-19T06:29:44Z
2021-05-19T04:31:36Z,42.805,6.029,13.2991,4.60003,2470.614,2021-5-19T06:32:47Z
2021-05-19T04:34:39Z,42.805,6.029,13.2993,4.60003,2470.591,2021-5-19T06:35:51Z
2021-05-19T04:37:42Z,42.805,6.029,13.2996,4.60007,2470.614,2021-5-19T06:38:54Z
2021-05-19T04:40:45Z,42.805,6.029,13.2992,4.60003,2470.614,2021-5-19T06:41:57Z
2021-05-19T04:43:49Z,42.805,6.029,13.2990,4.60001,2470.53,2021-5-19T06:45:00Z
2021-05-19T04:46:52Z,42.805,6.029,13.2992,4.60002,2470.624,2021-5-19T06:48:03Z
2021-05-19T04:49:55Z,42.805,6.029,13.2990,4.60000,2470.553,2021-5-19T06:51:06Z
2021-05-19T04:52:58Z,42.805,6.029,13.2989,4.60003,2470.544,2021-5-19T06:54:09Z
2021-05-19T04:56:01Z,42.805,6.029,13.2995,4.60006,2470.577,2021-5-19T06:57:12Z
2021-05-19T04:59:04Z,42.805,6.029,13.2991,4.60002,2470.553,2021-5-19T07:00:15Z
2021-05-19T05:02:07Z,42.805,6.029,13.2993,4.60001,2470.553,2021-5-19T07:03:19Z
2021-05-19T05:05:10Z,42.805,6.029,13.2995,4.60008,2470.591,2021-5-19T07:06:22Z
2021-05-19T05:08:14Z,42.805,6.029,13.2989,4.59999,2470.591,2021-5-19T07:09:25Z
2021-05-19T05:11:17Z,42.805,6.029,13.2997,4.60007,2470.577,2021-5-19T07:12:28Z
2021-05-19T05:14:20Z,42.805,6.029,13.2991,4.60001,2470.553,2021-5-19T07:15:31Z
2021-05-19T05:17:23Z,42.805,6.029,13.2993,4.60006,2470.591,2021-5-19T07:18:34Z
2021-05-19T05:20:26Z,42.805,6.029,13.2991,4.60001,2470.544,2021-5-19T07:21:37Z
2021-05-19T05:23:29Z,42.805,6.029,13.2991,4.60006,2470.553,2021-5-19T07:24:40Z
2021-05-19T05:26:32Z,42.805,6.029,13.2991,4.60001,2470.567,2021-5-19T07:27:44Z
2021-05-19T05:29:35Z,42.805,6.029,13.2993,4.60001,2470.577,2021-5-19T07:30:47Z
2021-05-19T05:32:39Z,42.805,6.029,13.2986,4.60003,2470.553,2021-5-19T07:33:50Z
2021-05-19T05:35:42Z,42.805,6.029,13.2996,4.60006,2470.567,2021-5-19T07:36:53Z
2021-05-19T05:38:45Z,42.805,6.029,13.2994,4.60001,2470.567,2021-5-19T07:39:56Z
2021-05-19T05:41:48Z,42.805,6.029,13.2995,4.60005,2470.539,2021-5-19T07:42:59Z
2021-05-19T05:44:51Z,42.805,6.029,13.2996,4.60004,2470.544,2021-5-19T07:46:02Z
2021-05-19T05:47:54Z,42.805,6.029,13.2993,4.60003,2470.553,2021-5-19T07:49:05Z
2021-05-19T05:50:57Z,42.805,6.029,13.2992,4.60007,2470.553,2021-5-19T07:52:09Z
2021-05-19T05:54:00Z,42.805,6.029,13.2990,4.60007,2470.53,2021-5-19T07:55:12Z
2021-05-19T05:57:03Z,42.805,6.029,13.2995,4.60003,2470.53,2021-5-19T07:58:15Z
2021-05-19T06:00:07Z,42.805,6.029,13.2994,4.60003,2470.507,2021-5-19T08:01:18Z
2021-05-19T06:03:10Z,42.805,6.029,13.2994,4.60007,2470.53,2021-5-19T08:04:21Z
2021-05-19T06:06:13Z,42.805,6.029,13.2993,4.60009,2470.53,2021-5-19T08:07:24Z
2021-05-19T06:09:16Z,42.805,6.029,13.2994,4.60005,2470.553,2021-5-19T08:10:27Z
2021-05-19T06:12:19Z,42.805,6.029,13.2995,4.60019,2470.53,2021-5-19T08:13:30Z
2021-05-19T06:15:22Z,42.805,6.029,13.2990,4.59999,2470.553,2021-5-19T08:16:34Z
2021-05-19T06:18:25Z,42.805,6.029,13.2995,4.60016,2470.553,2021-5-19T08:19:37Z
2021-05-19T06:21:28Z,42.805,6.029,13.2995,4.60003,2470.53,2021-5-19T08:22:40Z
2021-05-19T06:24:32Z,42.805,6.029,13.2993,4.60002,2470.567,2021-5-19T08:25:43Z
2021-05-19T06:27:35Z,42.805,6.029,13.2998,4.60004,2470.52,2021-5-19T08:28:46Z
2021-05-19T06:30:38Z,42.805,6.029,13.2993,4.60006,2470.53,2021-5-19T08:31:49Z
2021-05-19T06:33:41Z,42.805,6.029,13.2997,4.60005,2470.544,2021-5-19T08:34:52Z
2021-05-19T06:36:44Z,42.805,6.029,13.2995,4.60010,2470.544,2021-5-19T08:37:55Z
2021-05-19T06:39:47Z,42.805,6.029,13.2997,4.60006,2470.567,2021-5-19T08:40:59Z
2021-05-19T06:42:50Z,42.805,6.029,13.2998,4.60006,2470.53,2021-5-19T08:44:02Z
2021-05-19T06:45:53Z,42.805,6.029,13.2993,4.60006,2470.53,2021-5-19T08:47:05Z
2021-05-19T06:48:57Z,42.805,6.029,13.2992,4.60005,2470.544,2021-5-19T08:50:08Z
2021-05-19T06:52:00Z,42.805,6.029,13.2993,4.60006,2470.53,2021-5-19T08:53:11Z
2021-05-19T06:55:03Z,42.805,6.029,13.2995,4.60005,2470.53,2021-5-19T08:56:14Z
2021-05-19T06:58:06Z,42.805,6.029,13.2993,4.60006,2470.544,2021-5-19T08:59:17Z
2021-05-19T07:01:09Z,42.805,6.029,13.2993,4.60005,2470.544,2021-5-19T09:02:20Z
2021-05-19T07:04:12Z,42.805,6.029,13.2987,4.60003,2470.53,2021-5-19T09:05:24Z
2021-05-19T07:07:15Z,42.805,6.029,13.2997,4.60004,2470.497,2021-5-19T09:08:27Z
2021-05-19T07:10:18Z,42.805,6.029,13.2997,4.60003,2470.52,2021-5-19T09:11:30Z
2021-05-19T07:13:22Z,42.805,6.029,13.2993,4.60003,2470.553,2021-5-19T09:14:33Z
2021-05-19T07:16:25Z,42.805,6.029,13.2996,4.60003,2470.507,2021-5-19T09:17:36Z
2021-05-19T07:19:28Z,42.805,6.029,13.2992,4.60011,2470.483,2021-5-19T09:20:39Z
2021-05-19T07:22:31Z,42.805,6.029,13.2998,4.60006,2470.53,2021-5-19T09:23:42Z
2021-05-19T07:25:34Z,42.805,6.029,13.2995,4.60005,2470.553,2021-5-19T09:26:45Z
2021-05-19T07:28:37Z,42.805,6.029,13.2993,4.60001,2470.544,2021-5-19T09:29:49Z
2021-05-19T07:31:40Z,42.805,6.029,13.3001,4.60005,2470.53,2021-5-19T09:32:52Z
2021-05-19T07:34:43Z,42.805,6.029,13.3002,4.60016,2470.53,2021-5-19T09:35:55Z
2021-05-19T07:37:47Z,42.805,6.029,13.2998,4.60012,2470.497,2021-5-19T09:38:58Z
2021-05-19T07:40:50Z,42.805,6.029,13.2998,4.60022,2470.577,2021-5-19T09:42:01Z
2021-05-19T07:43:53Z,42.805,6.029,13.2994,4.60014,2470.544,2021-5-19T09:45:04Z
2021-05-19T07:46:56Z,42.805,6.029,13.2996,4.60008,2470.553,2021-5-19T09:48:07Z
2021-05-19T07:49:59Z,42.805,6.029,13.2995,4.60008,2470.52,2021-5-19T09:51:10Z
2021-05-19T07:53:02Z,42.805,6.029,13.2993,4.60005,2470.497,2021-5-19T09:54:14Z
2021-05-19T07:56:05Z,42.805,6.029,13.2993,4.60005,2470.553,2021-5-19T09:57:17Z
2021-05-19T07:59:08Z,42.805,6.029,13.2994,4.60003,2470.567,2021-5-19T10:00:20Z
2021-05-19T08:02:12Z,42.805,6.029,13.2995,4.60009,2470.553,2021-5-19T10:03:23Z
2021-05-19T08:05:15Z,42.805,6.029,13.2996,4.60019,2470.544,2021-5-19T10:06:26Z
2021-05-19T08:08:18Z,42.805,6.029,13.2996,4.60007,2470.53,2021-5-19T10:09:29Z
2021-05-19T08:11:21Z,42.805,6.029,13.2998,4.60007,2470.53,2021-5-19T10:12:32Z
2021-05-19T08:14:24Z,42.805,6.029,13.2996,4.60016,2470.53,2021-5-19T10:15:35Z
2021-05-19T08:17:27Z,42.805,6.029,13.3000,4.60019,2470.53,2021-5-19T10:18:39Z
2021-05-19T08:20:30Z,42.805,6.029,13.2996,4.60010,2470.53,2021-5-19T10:21:42Z
2021-05-19T08:23:33Z,42.805,6.029,13.2999,4.60012,2470.53,2021-5-19T10:24:45Z
2021-05-19T08:26:37Z,42.805,6.029,13.2998,4.60009,2470.53,2021-5-19T10:27:48Z
2021-05-19T08:29:40Z,42.805,6.029,13.3000,4.60018,2470.52,2021-5-19T10:30:51Z
2021-05-19T08:32:43Z,42.805,6.029,13.2998,4.60004,2470.507,2021-5-19T10:33:54Z
2021-05-19T08:35:46Z,42.805,6.029,13.2998,4.60006,2470.507,2021-5-19T10:36:57Z
2021-05-19T08:38:49Z,42.805,6.029,13.2992,4.60003,2470.474,2021-5-19T10:40:00Z
2021-05-19T08:41:52Z,42.805,6.029,13.2993,4.60005,2470.53,2021-5-19T10:43:04Z
2021-05-19T08:44:55Z,42.805,6.029,13.2998,4.60020,2470.53,2021-5-19T10:46:07Z
2021-05-19T08:47:58Z,42.805,6.029,13.2991,4.60006,2470.507,2021-5-19T10:49:10Z
2021-05-19T08:51:02Z,42.805,6.029,13.2991,4.60010,2470.507,2021-5-19T10:52:13Z
2021-05-19T08:54:05Z,42.805,6.029,13.2996,4.60009,2470.53,2021-5-19T10:55:16Z
2021-05-19T08:57:08Z,42.805,6.029,13.2998,4.60013,2470.493,2021-5-19T10:58:19Z
2021-05-19T09:00:11Z,42.805,6.029,13.2996,4.60011,2470.544,2021-5-19T11:01:22Z
2021-05-19T09:03:14Z,42.805,6.029,13.2992,4.60006,2470.544,2021-5-19T11:04:25Z
2021-05-19T09:06:17Z,42.805,6.029,13.2998,4.60009,2470.53,2021-5-19T11:07:29Z
2021-05-19T09:09:20Z,42.805,6.029,13.2995,4.60011,2470.483,2021-5-19T11:10:32Z
2021-05-19T09:12:23Z,42.805,6.029,13.2998,4.60014,2470.553,2021-5-19T11:13:35Z
2021-05-19T09:15:27Z,42.805,6.029,13.2996,4.60007,2470.53,2021-5-19T11:16:38Z
2021-05-19T09:18:30Z,42.805,6.029,13.2996,4.60014,2470.544,2021-5-19T11:19:41Z
2021-05-19T09:21:33Z,42.805,6.029,13.2999,4.60011,2470.507,2021-5-19T11:22:44Z
2021-05-19T09:24:36Z,42.805,6.029,13.2995,4.60016,2470.53,2021-5-19T11:25:47Z
2021-05-19T09:27:39Z,42.805,6.029,13.3000,4.60014,2470.52,2021-5-19T11:28:50Z
2021-05-19T09:30:42Z,42.805,6.029,13.2996,4.60011,2470.52,2021-5-19T11:31:54Z
2021-05-19T09:33:45Z,42.805,6.029,13.2997,4.60010,2470.567,2021-5-19T11:34:57Z
2021-05-19T09:36:49Z,42.805,6.029,13.3000,4.60013,2470.53,2021-5-19T11:38:00Z
2021-05-19T09:39:52Z,42.805,6.029,13.2993,4.60006,2470.52,2021-5-19T11:41:03Z
2021-05-19T09:42:55Z,42.805,6.029,13.2997,4.60011,2470.483,2021-5-19T11:44:06Z
2021-05-19T09:45:58Z,42.805,6.029,13.3000,4.60008,2470.52,2021-5-19T11:47:09Z
2021-05-19T09:49:01Z,42.805,6.029,13.2996,4.60008,2470.53,2021-5-19T11:50:12Z
2021-05-19T09:52:04Z,42.805,6.029,13.2995,4.60011,2470.53,2021-5-19T11:53:15Z
2021-05-19T09:55:07Z,42.805,6.029,13.3003,4.60013,2470.52,2021-5-19T11:56:19Z
2021-05-19T09:58:10Z,42.805,6.029,13.2996,4.60009,2470.544,2021-5-19T11:59:22Z
2021-05-19T10:01:14Z,42.805,6.029,13.2998,4.60010,2470.52,2021-5-19T12:02:25Z
2021-05-19T10:04:17Z,42.805,6.029,13.2992,4.60009,2470.52,2021-5-19T12:05:28Z
2021-05-19T10:07:20Z,42.805,6.029,13.2996,4.60009,2470.567,2021-5-19T12:08:31Z
2021-05-19T10:10:23Z,42.805,6.029,13.3000,4.60010,2470.507,2021-5-19T12:11:34Z
2021-05-19T10:13:26Z,42.805,6.029,13.3000,4.60011,2470.53,2021-5-19T12:14:37Z
2021-05-19T10:16:29Z,42.805,6.029,13.2998,4.60010,2470.53,2021-5-19T12:17:40Z
2021-05-19T10:19:32Z,42.805,6.029,13.3000,4.60014,2470.544,2021-5-19T12:20:44Z
2021-05-19T10:22:35Z,42.805,6.029,13.2999,4.60014,2470.53,2021-5-19T12:23:47Z
2021-05-19T10:25:39Z,42.805,6.029,13.2998,4.60016,2470.53,2021-5-19T12:26:50Z
2021-05-19T10:28:42Z,42.805,6.029,13.2997,4.60015,2470.493,2021-5-19T12:29:53Z
2021-05-19T10:31:45Z,42.805,6.029,13.2998,4.60014,2470.52,2021-5-19T12:32:56Z
2021-05-19T10:34:48Z,42.805,6.029,13.3000,4.60008,2470.544,2021-5-19T12:35:59Z
2021-05-19T10:37:51Z,42.805,6.029,13.3000,4.60011,2470.507,2021-5-19T12:39:02Z
2021-05-19T10:40:54Z,42.805,6.029,13.3003,4.60013,2470.544,2021-5-19T12:42:06Z
2021-05-19T10:43:57Z,42.805,6.029,13.3000,4.60013,2470.553,2021-5-19T12:45:09Z
2021-05-19T10:47:00Z,42.805,6.029,13.2997,4.60010,2470.544,2021-5-19T12:48:12Z
2021-05-19T10:50:04Z,42.805,6.029,13.2994,4.60003,2470.483,2021-5-19T12:51:15Z
2021-05-19T10:53:07Z,42.805,6.029,13.3002,4.60014,2470.544,2021-5-19T12:54:18Z
2021-05-19T10:56:10Z,42.805,6.029,13.2998,4.60020,2470.553,2021-5-19T12:57:21Z
2021-05-19T10:59:13Z,42.805,6.029,13.2998,4.60014,2470.507,2021-5-19T13:00:24Z
2021-05-19T11:02:16Z,42.805,6.029,13.3002,4.60014,2470.53,2021-5-19T13:03:27Z
2021-05-19T11:05:19Z,42.805,6.029,13.2996,4.60016,2470.53,2021-5-19T13:06:31Z
2021-05-19T11:08:22Z,42.805,6.029,13.2998,4.60010,2470.567,2021-5-19T13:09:34Z
2021-05-19T11:11:25Z,42.805,6.029,13.2999,4.60008,2470.577,2021-5-19T13:12:37Z
2021-05-19T11:14:29Z,42.805,6.029,13.2993,4.60006,2470.553,2021-5-19T13:15:40Z
2021-05-19T11:17:32Z,42.805,6.029,13.2997,4.60011,2470.553,2021-5-19T13:18:43Z
2021-05-19T11:20:35Z,42.805,6.029,13.2998,4.60011,2470.577,2021-5-19T13:21:46Z
2021-05-19T11:23:38Z,42.805,6.029,13.2999,4.60012,2470.544,2021-5-19T13:24:49Z
2021-05-19T11:26:41Z,42.805,6.029,13.2997,4.60009,2470.53,2021-5-19T13:27:52Z
2021-05-19T11:29:44Z,42.805,6.029,13.2996,4.60009,2470.553,2021-5-19T13:30:56Z
2021-05-19T11:32:47Z,42.805,6.029,13.3000,4.60008,2470.553,2021-5-19T13:33:59Z
2021-05-19T11:35:50Z,42.805,6.029,13.2996,4.60011,2470.544,2021-5-19T13:37:02Z
2021-05-19T11:38:54Z,42.805,6.029,13.2996,4.60009,2470.53,2021-5-19T13:40:05Z
2021-05-19T11:41:57Z,42.805,6.029,13.3000,4.60008,2470.553,2021-5-19T13:43:08Z
2021-05-19T11:45:00Z,42.805,6.029,13.2996,4.60005,2470.567,2021-5-19T13:46:11Z
2021-05-19T11:48:03Z,42.805,6.029,13.2998,4.60011,2470.53,2021-5-19T13:49:14Z
2021-05-19T11:51:06Z,42.805,6.029,13.2993,4.60008,2470.544,2021-5-19T13:52:17Z
2021-05-19T11:54:09Z,42.805,6.029,13.2996,4.60014,2470.544,2021-5-19T13:55:21Z
2021-05-19T11:57:12Z,42.805,6.029,13.2996,4.60014,2470.567,2021-5-19T13:58:24Z
2021-05-19T12:00:15Z,42.805,6.029,13.2996,4.60006,2470.544,2021-5-19T14:01:27Z
2021-05-19T12:03:19Z,42.805,6.029,13.2996,4.60009,2470.507,2021-5-19T14:04:30Z
2021-05-19T12:06:22Z,42.805,6.029,13.2993,4.60009,2470.53,2021-5-19T14:07:33Z
2021-05-19T12:09:25Z,42.805,6.029,13.3003,4.60011,2470.544,2021-5-19T14:10:36Z
2021-05-19T12:12:28Z,42.805,6.029,13.3001,4.60011,2470.507,2021-5-19T14:13:39Z
2021-05-19T12:15:31Z,42.805,6.029,13.3003,4.60013,2470.567,2021-5-19T14:16:42Z
2021-05-19T12:18:34Z,42.805,6.029,13.2998,4.60009,2470.544,2021-5-19T14:19:46Z
2021-05-19T12:21:37Z,42.805,6.029,13.2998,4.60008,2470.53,2021-5-19T14:22:49Z
2021-05-19T12:24:41Z,42.805,6.029,13.2998,4.60013,2470.507,2021-5-19T14:25:52Z
2021-05-19T12:27:44Z,42.805,6.029,13.3000,4.60014,2470.544,2021-5-19T14:28:55Z
2021-05-19T12:30:47Z,42.805,6.029,13.2997,4.60016,2470.53,2021-5-19T14:31:58Z
2021-05-19T12:33:50Z,42.805,6.029,13.2996,4.60008,2470.53,2021-5-19T14:35:01Z
2021-05-19T12:36:53Z,42.805,6.029,13.3000,4.60003,2470.52,2021-5-19T14:38:04Z
2021-05-19T12:39:56Z,42.805,6.029,13.2994,4.60013,2470.553,2021-5-19T14:41:08Z
2021-05-19T12:42:59Z,42.805,6.029,13.2997,4.60008,2470.53,2021-5-19T14:44:11Z
2021-05-19T12:46:02Z,42.805,6.029,13.2997,4.60004,2470.544,2021-5-19T14:47:14Z
2021-05-19T12:49:06Z,42.805,6.029,13.2996,4.60017,2470.53,2021-5-19T14:50:17Z
2021-05-19T12:52:09Z,42.805,6.029,13.3004,4.60016,2470.53,2021-5-19T14:53:20Z
2021-05-19T12:55:12Z,42.805,6.029,13.2996,4.60007,2470.53,2021-5-19T14:56:23Z
2021-05-19T12:58:15Z,42.805,6.029,13.2992,4.60007,2470.544,2021-5-19T14:59:26Z
2021-05-19T13:01:18Z,42.805,6.029,13.2993,4.60007,2470.553,2021-5-19T15:02:29Z
2021-05-19T13:04:21Z,42.805,6.029,13.2996,4.60011,2470.544,2021-5-19T15:05:33Z
2021-05-19T13:07:24Z,42.805,6.029,13.2995,4.60016,2470.544,2021-5-19T15:08:36Z
2021-05-19T13:10:27Z,42.805,6.029,13.3000,4.60010,2470.507,2021-5-19T15:11:39Z
2021-05-19T13:13:31Z,42.805,6.029,13.2996,4.60011,2470.53,2021-5-19T15:14:42Z
2021-05-19T13:16:34Z,42.805,6.029,13.2996,4.60022,2470.553,2021-5-19T15:17:45Z
2021-05-19T13:19:37Z,42.805,6.029,13.2997,4.60009,2470.507,2021-5-19T15:20:48Z
2021-05-19T13:22:40Z,42.805,6.029,13.2998,4.60008,2470.544,2021-5-19T15:23:51Z
2021-05-19T13:25:43Z,42.805,6.029,13.2998,4.60014,2470.567,2021-5-19T15:26:54Z
2021-05-19T13:28:46Z,42.805,6.029,13.2993,4.60005,2470.53,2021-5-19T15:29:58Z
2021-05-19T13:31:49Z,42.805,6.029,13.2998,4.60009,2470.52,2021-5-19T15:33:01Z
2021-05-19T13:34:52Z,42.805,6.029,13.3001,4.60008,2470.52,2021-5-19T15:36:04Z
2021-05-19T13:37:56Z,42.805,6.029,13.2997,4.60011,2470.577,2021-5-19T15:39:07Z
2021-05-19T13:40:59Z,42.805,6.029,13.2997,4.60021,2470.544,2021-5-19T15:42:10Z
2021-05-19T13:44:02Z,42.805,6.029,13.2993,4.60014,2470.53,2021-5-19T15:45:13Z
2021-05-19T13:47:05Z,42.805,6.029,13.2993,4.60011,2470.553,2021-5-19T15:48:16Z
2021-05-19T13:50:08Z,42.805,6.029,13.3000,4.60009,2470.507,2021-5-19T15:51:19Z
2021-05-19T13:53:11Z,42.805,6.029,13.2992,4.60009,2470.497,2021-5-19T15:54:23Z
2021-05-19T13:56:14Z,42.805,6.029,13.2995,4.60011,2470.52,2021-5-19T15:57:26Z
2021-05-19T13:59:18Z,42.805,6.029,13.2995,4.60010,2470.53,2021-5-19T16:00:29Z
2021-05-19T14:02:21Z,42.805,6.029,13.2999,4.60025,2470.553,2021-5-19T16:03:32Z
2021-05-19T14:05:24Z,42.805,6.029,13.2998,4.60021,2470.507,2021-5-19T16:06:35Z
2021-05-19T14:08:27Z,42.805,6.029,13.2999,4.60008,2470.553,2021-5-19T16:09:38Z
2021-05-19T14:11:30Z,42.805,6.029,13.2991,4.60003,2470.507,2021-5-19T16:12:41Z
2021-05-19T14:14:33Z,42.805,6.029,13.2997,4.60014,2470.53,2021-5-19T16:15:45Z
2021-05-19T14:17:36Z,42.805,6.029,13.3002,4.60015,2470.507,2021-5-19T16:18:48Z
2021-05-19T14:20:39Z,42.805,6.029,13.3000,4.60017,2470.544,2021-5-19T16:21:51Z
2021-05-19T14:23:43Z,42.805,6.029,13.2995,4.60008,2470.507,2021-5-19T16:24:54Z
2021-05-19T14:26:46Z,42.805,6.029,13.2999,4.60010,2470.53,2021-5-19T16:27:57Z
2021-05-19T14:29:49Z,42.805,6.029,13.2998,4.60011,2470.483,2021-5-19T16:31:00Z
2021-05-19T14:32:52Z,42.805,6.029,13.2997,4.60009,2470.544,2021-5-19T16:34:03Z
2021-05-19T14:35:55Z,42.805,6.029,13.2996,4.60010,2470.53,2021-5-19T16:37:06Z
2021-05-19T14:38:58Z,42.805,6.029,13.2996,4.60008,2470.52,2021-5-19T16:40:10Z
2021-05-19T14:42:01Z,42.805,6.029,13.2993,4.60010,2470.507,2021-5-19T16:43:13Z
2021-05-19T14:45:04Z,42.805,6.029,13.2996,4.60011,2470.53,2021-5-19T16:46:16Z
2021-05-19T14:48:08Z,42.805,6.029,13.2999,4.60012,2470.53,2021-5-19T16:49:19Z
2021-05-19T14:51:11Z,42.805,6.029,13.2989,4.60008,2470.53,2021-5-19T16:52:22Z
2021-05-19T14:54:14Z,42.805,6.029,13.3000,4.60010,2470.52,2021-5-19T16:55:25Z
2021-05-19T14:57:17Z,42.805,6.029,13.2993,4.60010,2470.53,2021-5-19T16:58:28Z
2021-05-19T15:00:20Z,42.805,6.029,13.2996,4.60008,2470.507,2021-5-19T17:01:31Z
2021-05-19T15:03:23Z,42.805,6.029,13.2996,4.60004,2470.507,2021-5-19T17:04:35Z
2021-05-19T15:06:26Z,42.805,6.029,13.2996,4.60009,2470.483,2021-5-19T17:07:38Z
2021-05-19T15:09:29Z,42.805,6.029,13.3000,4.60014,2470.507,2021-5-19T17:10:41Z
2021-05-19T15:12:33Z,42.805,6.029,13.2996,4.60009,2470.544,2021-5-19T17:13:44Z
2021-05-19T15:15:36Z,42.805,6.029,13.2993,4.60005,2470.53,2021-5-19T17:16:47Z